Home > Weather > Dharmapuri > Past weeks

Flag for India Past Weather in Dharmapuri, Tamil Nadu, India — Yesterday and Last 2 Weeks

Now
79 °F

Broken clouds.


Feels Like: 81 °F
Forecast: 74 / 90 °F
Wind: 9 mph from West

Location: Bangalore / Hindustan

Current Time: Aug 25, 2016 at 1:46:16 PM

Latest Report: Aug 25, 2016 at 1:00 PM


Visibility: N/A

Pressure: 29.89 "Hg

Humidity: 65%

Dew Point: 66 °F

Location of DharmapuriLocation

Past Weather in Dharmapuri — Graph

°F

Dharmapuri Temperature Yesterday

Maximum temperature yesterday: 84 °F (at 3:00 PM)
Minimum temperature yesterday: 70 °F (at 5:30 AM)
Average temperature yesterday: 78 °F

High & Low Weather Summary for the Past Weeks

 TemperatureHumidityPressure
High86 °F (Aug 20, 4:30 PM)94% (Aug 11, 5:30 AM)30.01 "Hg (Aug 11, 5:30 AM)
Low68 °F (Aug 11, 5:30 AM)43% (Aug 20, 4:30 PM)29.77 "Hg (Aug 17, 3:00 PM)
Average77 °F70%29.88 "Hg
* Reported Aug 10 12:30 PM — Aug 25 12:30 PM, Dharmapuri, Weather by CustomWeather, © 2016

Note: Actual official high and low records may vary slightly from our data, if they occured in-between our weather recording intervals... More about our weather records

Advertising

Dharmapuri Weather History for the Previous 24 Hours

Scroll right to see more
 ConditionsComfort  
Time TempWeatherWind HumidityBarometerVisibility
12:30 PM
Thu, Aug 25
79 °FBroken clouds.9 mph65%29.89 "HgN/A
12:00 PM79 °FBroken clouds.12 mph65%29.92 "HgN/A
11:30 AM77 °FBroken clouds.12 mph74%29.92 "HgN/A
11:00 AM77 °FBroken clouds.12 mph69%29.92 "HgN/A
10:30 AM77 °FBroken clouds.9 mph69%29.92 "HgN/A
10:00 AM77 °FBroken clouds.14 mph69%29.92 "HgN/A
9:30 AM75 °FBroken clouds.14 mph74%29.95 "HgN/A
9:00 AM75 °FScattered clouds.12 mph78%29.92 "HgN/A
8:30 AM73 °FScattered clouds.12 mph83%29.92 "HgN/A
8:00 AM73 °FBroken clouds.12 mph78%29.92 "HgN/A
7:30 AM72 °FBroken clouds.14 mph83%29.92 "HgN/A
7:00 AM72 °FBroken clouds.14 mph83%29.92 "HgN/A
6:30 AM72 °FPartly cloudy.12 mph83%29.89 "HgN/A
6:00 AM72 °FPartly cloudy.14 mph83%29.89 "HgN/A
5:30 AM72 °FPassing clouds.12 mph83%29.86 "HgN/A
11:30 PM
Wed, Aug 24
75 °FPassing clouds.12 mph74%29.92 "HgN/A
10:30 PM75 °FPassing clouds.12 mph74%29.92 "HgN/A
9:30 PM77 °FPassing clouds.9 mph69%29.89 "HgN/A
8:30 PM77 °FPassing clouds.5 mph69%29.86 "HgN/A
7:30 PM79 °FPassing clouds.6 mph65%29.86 "HgN/A
6:30 PM81 °FScattered clouds.8 mph62%29.83 "HgN/A
5:30 PM82 °FScattered clouds.7 mph58%29.80 "HgN/A
5:00 PM82 °FScattered clouds.12 mph58%29.80 "HgN/A
4:30 PM84 °FScattered clouds.14 mph51%29.80 "HgN/A
4:00 PM82 °FScattered clouds.9 mph58%29.80 "HgN/A
3:30 PM84 °FScattered clouds.9 mph55%29.80 "HgN/A
3:00 PM84 °FScattered clouds.14 mph55%29.83 "HgN/A
2:30 PM82 °FScattered clouds.9 mph58%29.83 "HgN/A
2:00 PM82 °FScattered clouds.9 mph58%29.83 "HgN/A
1:30 PM82 °FScattered clouds.12 mph58%29.86 "HgN/A
1:00 PM82 °FScattered clouds.14 mph58%29.86 "HgN/A
Weather by CustomWeather, © 2016

See weather overviewHow to use our weather pages